{"data":{"norad_id":67906,"epoch":"2026-05-25T02:17:15.052704Z","epoch_age_seconds":62683,"freshness":"FRESH","line1":"1 67906U 26036C   26145.09531311  .00015059  00000+0  55543-3 0  9990","line2":"2 67906  42.9996 174.0911 0003054 281.5026  78.5483 15.27589237 15402","mean_motion":15.27589237,"eccentricity":0.0003054,"inclination_deg":42.9996,"raan_deg":174.0911,"arg_perigee_deg":281.5026,"mean_anomaly_deg":78.5483,"bstar":0.00055543,"rev_number":1540,"period_min":94.266178703117,"perigee_km":480.92603949129,"apogee_km":485.11683506478,"semimajor_km":6861.158437278,"source":"CELESTRAK","updated_at":"2026-05-25T13:38:21.737787Z"}}